TimeMDT,TemperatureF,Dew PointF,Humidity,Sea Level PressureIn,VisibilityMPH,Wind Direction,Wind SpeedMPH,Gust SpeedMPH,PrecipitationIn,Events,Conditions,WindDirDegrees,DateUTC
12:53 AM,42.1,21.9,45,30.04,10.0,WSW,10.4,-,N/A,,Clear,240,2013-04-28 06:53:00
1:53 AM,43.0,21.0,42,30.02,10.0,SW,9.2,-,N/A,,Clear,220,2013-04-28 07:53:00
2:53 AM,44.1,19.9,38,29.99,10.0,SSW,9.2,-,N/A,,Clear,210,2013-04-28 08:53:00
3:53 AM,41.0,21.0,45,29.99,10.0,SW,8.1,-,N/A,,Clear,230,2013-04-28 09:53:00
5:53 AM,39.0,21.0,49,29.99,10.0,WSW,12.7,-,N/A,,Clear,240,2013-04-28 11:53:00
7:53 AM,46.0,23.0,40,30.00,10.0,WSW,11.5,-,N/A,,Clear,240,2013-04-28 13:53:00
8:53 AM,52.0,21.9,31,29.99,10.0,SW,13.8,-,N/A,,Clear,220,2013-04-28 14:53:00
9:53 AM,59.0,23.0,25,29.97,10.0,SW,13.8,-,N/A,,Clear,220,2013-04-28 15:53:00
10:53 AM,61.0,23.0,23,29.95,10.0,West,19.6,31.1,N/A,,Clear,260,2013-04-28 16:53:00
11:53 AM,63.0,23.0,22,29.94,10.0,WSW,25.3,32.2,N/A,,Clear,250,2013-04-28 17:53:00
12:53 PM,66.0,19.9,17,29.93,10.0,West,24.2,36.8,N/A,,Clear,270,2013-04-28 18:53:00
1:53 PM,63.0,19.9,19,29.92,10.0,West,26.5,38.0,N/A,,Clear,270,2013-04-28 19:53:00
2:53 PM,64.9,21.0,19,29.90,10.0,West,33.4,43.7,N/A,,Clear,260,2013-04-28 20:53:00
3:53 PM,64.0,21.0,19,29.90,10.0,West,24.2,36.8,N/A,,Clear,260,2013-04-28 21:53:00
4:53 PM,64.0,23.0,21,29.90,10.0,WSW,23.0,29.9,N/A,,Partly Cloudy,250,2013-04-28 22:53:00
5:53 PM,61.0,21.0,21,29.91,10.0,West,23.0,32.2,N/A,,Clear,280,2013-04-28 23:53:00
6:53 PM,60.1,19.9,21,29.91,10.0,West,15.0,23.0,N/A,,Clear,260,2013-04-29 00:53:00
7:53 PM,55.0,21.0,27,29.89,10.0,WSW,12.7,-,N/A,,Partly Cloudy,250,2013-04-29 01:53:00
8:53 PM,50.0,21.0,32,29.86,10.0,West,17.3,-,N/A,,Clear,260,2013-04-29 02:53:00
9:53 PM,46.9,21.0,36,29.87,10.0,WSW,8.1,-,N/A,,Clear,250,2013-04-29 03:53:00
10:53 PM,46.9,21.0,36,29.86,10.0,West,9.2,-,N/A,,Scattered Clouds,280,2013-04-29 04:53:00
11:53 PM,46.0,23.0,40,29.85,10.0,West,16.1,-,N/A,,Clear,280,2013-04-29 05:53:00